User: anonymous   Login
Location: Valdosta
(30.8330°N, 83.2790°W)
Time: 07:09:08
(UTC-04:00)
Language:

Uribyol 2 - Orbit

View from above orbital plane
View from above orbital plane
View from above satellite
View from above satellite

Ground track
Ground track

The orbit data is extracted from the following two-line orbital elements,

1 22828U 93061F   17145.49207609 +.00000006 +00000-0 +19585-4 0  9994
2 22828 098.7953 109.6534 0009959 003.4814 356.6435 14.30635119202464
Epoch (UTC): 25 May 2017 11:48:35
Eccentricity: 0.0009959
inclination: 98.7953°
perigee height: 782 km
apogee height: 797 km
right ascension of ascending node: 109.6534°
argument of perigee: 3.4814°
revolutions per day: 14.30635119
mean anomaly at epoch: 356.6435°
orbit number at epoch: 20246

The dashed part of the orbit path shows where the satellite is in the earth's shadow,  

DLR